Theta_e
328 329 328 327 327 326 325 325 322 322 324 322 321 320 322 326 321 319 328 333 329 330 333 332 333 335 335 334 334 333 332 332 345 355 354 352 354 355 355 355 354 352 351 352 352 349 347 347 346 345 345 346 349 350 351 353 356 360 361 360 358 357 356 356 355 355 357 357 355 354 353 352 351 350 344 336 328 327 328 327 332 339 336 327 323 321 319
328 329 329 328 327 326 325 325 325 325 324 323 323 323 324 325 323 323 329 332 332 332 331 332 334 333 333 333 333 333 330 331 344 355 355 353 353 353 352 353 351 348 347 350 350 347 345 344 345 345 346 347 347 349 350 350 353 358 360 358 355 355 356 355 356 359 359 357 355 354 354 354 354 353 351 347 339 333 330 328 332 340 342 337 328 322 320
325 328 329 328 328 326 324 324 326 326 325 323 323 324 324 324 323 324 327 328 330 332 331 331 332 332 333 333 332 333 333 336 346 355 354 352 354 353 350 352 354 350 348 350 347 344 341 341 344 345 344 345 345 347 350 352 352 355 358 358 355 355 357 355 355 359 359 356 355 356 355 355 355 355 354 353 348 342 336 333 333 337 344 344 335 323 321
323 326 327 327 328 326 322 322 325 325 324 323 323 324 325 325 324 324 324 322 326 331 332 332 332 332 332 333 334 335 337 342 348 353 354 353 353 351 348 352 354 348 345 345 342 340 340 341 343 343 344 344 343 347 352 354 357 358 358 360 357 353 354 352 355 359 359 356 356 356 356 355 354 354 355 353 350 347 342 337 335 339 345 347 340 327 322
323 325 326 325 325 323 320 321 325 326 326 325 325 325 326 326 326 324 322 322 327 332 332 330 331 333 331 333 336 335 338 348 353 353 355 355 352 349 348 350 349 343 341 342 339 338 339 341 342 342 343 344 342 346 352 356 360 360 359 358 354 351 350 351 357 361 358 355 356 356 355 353 353 353 354 353 351 348 345 339 337 340 344 346 342 331 325
325 326 326 325 322 319 321 325 328 327 327 326 326 325 325 327 327 327 326 328 331 331 329 329 332 333 330 332 339 341 344 351 356 354 354 355 356 354 353 351 348 344 347 347 344 344 342 341 341 342 343 345 345 348 352 354 356 356 358 357 354 353 352 351 357 360 357 353 355 356 354 353 354 354 354 354 351 348 346 342 339 339 341 344 340 332 327
326 327 327 324 321 322 326 328 328 327 327 327 327 327 327 327 327 328 329 330 331 331 331 332 333 333 334 339 345 347 344 345 348 350 351 354 356 356 357 355 351 349 350 349 348 349 350 348 346 346 346 346 344 346 349 349 348 350 353 355 354 353 351 353 357 357 353 352 354 354 354 353 354 353 353 353 351 348 346 344 341 337 335 337 338 333 328
328 327 324 323 324 328 331 333 331 329 328 328 326 325 327 328 328 329 329 329 330 332 332 335 339 341 344 347 346 344 342 340 341 343 345 348 351 353 355 354 353 352 351 349 347 349 353 356 354 349 346 345 345 350 353 350 347 348 349 349 350 350 350 355 358 355 350 350 352 353 353 353 353 353 352 352 351 349 347 346 344 338 332 333 336 334 329
330 326 324 325 327 327 330 333 333 333 332 332 329 325 326 329 328 329 331 332 331 330 333 340 344 342 342 343 342 342 341 339 338 339 342 344 346 349 350 348 348 350 349 348 347 347 350 354 353 350 348 349 353 357 355 348 344 345 346 345 346 347 348 353 355 350 347 348 350 351 353 352 352 352 352 351 350 349 348 347 345 340 335 335 335 333 330
329 326 326 328 325 323 330 335 336 336 335 336 337 331 327 331 333 332 333 334 332 332 338 343 342 340 339 337 338 343 344 340 338 339 341 342 344 347 348 348 348 345 342 344 345 344 344 347 349 350 352 354 354 353 349 344 341 342 343 342 343 346 349 351 349 345 346 348 350 351 352 352 351 350 350 350 349 347 346 345 343 339 337 336 334 331 330
328 326 326 327 324 327 337 339 336 336 335 336 338 330 326 333 340 338 335 334 334 336 341 343 342 339 336 332 336 346 346 343 343 342 342 344 347 348 347 349 350 347 344 344 343 341 344 348 350 352 353 351 345 340 341 343 342 340 341 343 343 345 346 346 343 343 345 348 350 352 351 351 350 349 348 348 348 346 345 343 341 339 337 335 332 330 328
328 328 327 326 326 333 340 337 334 335 335 336 333 324 324 337 344 341 338 337 338 341 344 344 341 337 334 334 343 349 348 348 348 348 348 349 350 351 351 352 351 347 345 348 349 349 349 349 348 348 346 342 337 335 340 346 347 344 342 343 343 342 342 341 340 342 346 349 352 351 350 349 349 348 347 347 346 345 344 342 340 338 337 335 333 330 327
326 327 327 327 328 335 337 334 334 336 336 334 329 324 332 345 345 343 342 340 339 342 344 341 340 341 344 347 349 349 350 352 353 352 352 351 351 353 353 351 348 345 347 350 351 349 345 341 339 339 337 336 336 335 337 343 347 346 342 340 339 338 339 339 341 346 349 350 350 349 347 347 346 346 346 345 345 345 343 340 338 337 335 334 332 330 328
324 326 327 326 329 335 335 333 336 336 333 332 331 334 342 345 343 342 342 340 340 342 343 342 344 347 350 351 352 352 352 353 353 353 353 354 354 354 353 351 349 350 350 349 346 341 336 335 336 336 335 334 334 334 335 338 341 340 337 337 337 337 338 340 343 347 349 347 345 344 344 344 344 344 344 344 343 342 340 337 336 335 334 333 332 331 329
325 326 328 326 329 335 335 334 337 337 335 336 338 340 341 341 342 343 342 342 344 344 345 346 347 349 350 351 352 353 352 353 353 353 353 354 353 353 352 351 351 350 347 343 340 338 337 337 337 336 336 335 335 336 337 337 337 337 336 335 336 337 340 341 343 344 343 341 341 340 341 343 342 342 343 342 341 339 337 335 335 335 334 333 332 331 330
326 325 327 330 333 335 334 335 339 339 338 339 339 338 338 339 340 342 342 343 345 345 346 346 345 346 347 348 349 350 350 351 351 351 352 351 351 350 349 347 345 343 341 340 340 339 338 338 338 337 336 335 336 337 337 336 336 335 334 334 335 337 339 341 342 339 337 339 341 341 340 341 341 340 340 339 338 337 336 335 335 335 334 333 332 331 329
332 330 333 335 335 334 333 334 336 336 335 336 335 336 337 338 338 340 341 341 341 341 341 341 340 341 341 341 343 344 346 348 348 346 345 344 344 344 342 340 338 338 338 337 337 337 337 336 336 336 335 334 334 335 337 338 337 335 333 333 332 333 337 340 340 338 336 339 341 340 339 340 339 339 337 336 336 336 335 335 335 334 332 331 331 330 327
336 335 336 336 333 333 333 333 333 333 333 334 335 336 336 336 337 338 339 340 340 340 340 339 339 339 339 340 341 342 344 345 343 339 337 336 335 334 333 333 333 334 334 333 333 334 334 333 333 334 334 333 332 334 335 336 335 334 333 332 331 335 339 340 338 338 339 340 340 339 338 338 338 337 336 335 335 335 335 334 333 332 332 332 331 328 325
332 332 335 334 332 332 333 332 332 332 332 333 334 335 335 335 336 336 337 338 339 339 340 340 339 337 338 340 340 340 342 342 337 333 332 332 331 330 330 329 330 330 330 330 331 331 331 331 331 330 330 330 329 331 331 331 332 332 331 333 337 341 342 339 338 340 341 340 340 339 338 338 337 336 335 335 335 334 334 333 332 332 333 331 329 327 328
332 333 335 335 333 332 332 332 333 332 331 331 332 333 333 333 333 334 335 337 338 338 339 340 340 340 338 338 338 339 341 340 335 329 327 327 327 328 328 328 328 330 330 329 329 329 329 329 328 327 328 328 328 329 328 330 335 336 335 337 341 342 342 340 340 341 341 340 339 339 338 337 336 336 335 334 334 334 334 333 333 333 333 330 329 330 331
333 333 334 334 332 332 330 330 331 331 331 331 331 331 331 330 330 331 331 332 334 336 337 338 339 341 340 339 339 340 341 341 338 332 329 328 328 327 328 327 327 328 327 328 328 327 327 327 327 327 328 327 328 330 330 335 341 341 337 339 341 340 341 341 340 340 340 340 338 338 337 336 335 334 334 334 334 334 334 333 333 334 334 333 331 330 328
333 332 333 332 333 334 333 331 330 330 332 331 331 331 331 330 329 329 329 329 330 330 332 333 333 335 337 338 337 337 336 336 335 333 331 330 328 327 327 327 327 327 327 326 327 326 326 326 326 326 327 327 330 334 336 339 342 340 338 341 342 340 340 341 340 339 340 339 338 338 338 336 333 331 331 332 333 333 332 330 330 332 334 334 329 326 329
332 332 334 335 337 337 333 329 327 328 329 328 329 330 330 330 328 327 327 327 326 326 327 328 328 329 331 332 333 334 334 333 333 332 332 331 330 329 328 328 328 329 328 326 327 327 327 326 326 327 328 329 330 335 338 340 341 339 338 339 341 341 341 340 339 339 339 338 338 338 338 336 332 330 331 332 332 332 331 330 330 331 331 328 324 325 331
331 332 333 334 335 333 328 325 325 326 326 326 325 325 326 327 328 327 327 326 326 325 324 324 324 325 325 325 326 328 329 329 329 329 330 331 331 332 334 334 333 332 331 329 329 329 329 329 329 331 334 334 334 337 339 339 338 336 333 334 339 342 342 339 338 338 338 337 337 337 337 336 334 333 333 333 332 332 333 333 331 329 326 323 322 325 330
330 331 332 332 332 330 326 325 325 325 326 326 325 322 321 323 323 324 324 324 324 324 323 322 322 322 322 322 322 322 322 323 323 324 325 328 329 331 333 333 333 334 334 333 332 332 333 334 334 335 337 339 340 339 337 335 333 331 329 334 340 342 341 337 335 336 338 337 336 336 336 336 335 334 333 333 332 332 332 330 327 323 322 322 324 326 328
329 328 328 329 328 327 326 325 325 325 325 325 324 324 323 322 322 321 322 321 321 321 321 321 320 320 320 319 319 320 319 319 320 321 322 325 327 328 328 328 329 332 334 334 335 335 335 336 336 336 338 339 339 337 334 332 332 329 330 336 341 340 336 333 331 333 336 337 336 336 336 335 335 335 334 333 332 330 328 325 323 322 322 323 324 326 327
327 327 327 327 326 325 325 324 324 323 323 323 322 322 321 321 321 321 321 321 320 319 319 319 319 320 319 318 319 319 319 318 319 319 320 321 322 323 324 324 324 327 330 333 334 334 335 336 336 336 338 338 338 336 333 332 332 330 330 333 336 333 330 329 331 332 334 335 335 335 334 333 333 333 333 332 331 330 327 326 326 326 323 322 324 326 327
324 324 325 326 325 324 323 322 322 322 321 322 321 321 321 321 321 321 321 321 320 319 319 319 319 319 318 318 318 319 319 318 318 317 318 318 319 319 320 321 322 324 327 330 332 334 335 336 336 336 337 337 336 335 333 332 331 331 330 331 331 329 327 329 333 335 334 333 332 331 329 328 329 330 331 331 330 330 329 329 329 327 324 322 325 327 327
321 321 320 321 322 322 322 322 322 322 322 322 322 323 323 323 322 322 322 321 321 320 319 318 319 319 318 318 318 318 318 317 316 316 316 316 316 317 319 319 319 319 320 324 331 334 335 336 337 337 336 336 336 335 333 332 331 330 330 331 333 333 331 331 334 333 330 327 327 326 325 325 326 328 330 329 329 329 329 329 329 328 326 325 326 327 326
319 319 318 318 319 320 320 320 320 320 321 321 322 323 323 323 322 322 322 320 320 321 319 319 319 319 318 318 318 318 318 318 317 316 316 315 314 315 316 317 320 324 327 329 331 333 335 336 337 337 336 336 335 334 333 332 331 329 329 331 332 333 333 332 331 329 326 323 323 324 324 324 325 327 329 329 328 328 329 329 329 328 327 326 325 325 325
317 318 318 317 317 317 318 320 320 318 318 320 320 319 321 322 322 323 323 321 320 320 320 321 321 319 318 318 319 318 319 319 318 318 318 317 315 314 314 314 318 327 333 333 330 331 335 337 337 337 336 335 334 333 332 332 331 329 328 329 329 330 331 329 328 328 328 325 322 323 324 326 327 328 329 329 329 329 329 329 329 329 328 326 324 324 324
317 316 316 316 316 315 316 318 317 315 315 317 317 316 317 320 321 322 322 322 322 322 322 323 321 319 317 318 318 318 319 319 319 321 322 320 317 315 315 314 314 318 323 325 325 329 335 337 338 338 336 334 334 333 331 330 330 330 331 331 331 330 330 328 326 326 327 325 324 325 327 328 329 329 329 329 330 330 330 330 329 329 328 327 326 325 325
318 318 317 318 318 318 318 319 318 316 315 316 317 317 318 320 321 321 321 322 322 322 321 321 319 318 318 318 318 319 320 321 322 325 325 321 318 317 317 316 315 315 317 320 325 331 334 336 337 337 336 334 333 333 332 331 331 331 333 333 332 330 329 327 325 325 326 326 327 328 328 328 329 329 329 329 329 329 329 329 328 328 328 327 326 325 324
318 319 318 317 318 318 319 320 319 319 318 318 319 320 320 320 321 321 322 323 323 321 320 319 318 318 319 319 319 321 323 324 324 325 323 319 316 316 317 319 320 319 317 319 326 332 334 335 336 336 335 334 332 331 332 332 332 331 331 329 327 328 329 327 325 326 328 328 327 327 327 328 329 330 329 329 329 328 328 328 327 327 326 325 325 324 323
317 317 317 317 317 318 318 319 319 320 320 320 321 321 321 321 322 322 323 323 323 322 322 321 322 322 322 320 321 323 324 323 322 320 318 317 318 320 322 325 326 325 325 327 330 332 333 334 335 335 335 333 331 329 329 330 329 329 329 328 327 328 328 326 326 328 329 328 327 327 328 329 329 328 327 327 327 327 327 326 325 325 324 324 323 323 322
318 318 318 318 318 318 318 318 319 320 320 321 321 321 321 321 322 322 322 322 322 322 323 323 323 323 323 322 322 322 323 322 321 320 321 323 324 325 327 328 329 329 330 331 332 332 333 333 333 332 332 332 331 329 328 329 329 328 329 329 329 328 327 327 328 329 329 328 327 328 327 327 326 326 325 325 325 326 326 324 324 323 323 323 323 322 321
318 318 317 317 317 317 317 318 319 320 321 321 321 321 321 322 322 322 322 322 322 323 323 323 323 323 323 323 323 323 323 323 324 324 325 326 327 327 328 329 329 330 330 331 331 332 332 331 331 330 329 330 330 329 329 329 328 328 328 329 329 328 327 328 328 328 327 327 326 326 324 324 324 324 324 323 323 324 324 323 323 323 322 322 322 321 321
318 317 317 317 317 318 318 319 320 320 321 321 321 321 321 322 322 323 322 322 323 323 323 323 324 323 323 323 323 324 324 324 325 326 327 327 327 327 327 328 328 329 330 330 330 330 330 330 331 331 330 328 328 328 328 328 328 329 330 330 330 329 327 327 326 326 324 322 321 322 323 323 323 323 322 322 322 323 322 322 321 321 321 321 321 321 321
319 319 318 319 319 319 319 320 320 320 320 321 321 321 321 322 322 322 322 322 323 323 323 324 324 324 324 324 324 324 325 325 325 326 327 327 327 327 327 327 328 328 328 329 329 328 326 327 329 330 329 328 327 327 327 328 328 328 328 328 327 325 324 324 323 323 321 320 319 321 322 322 322 322 322 322 322 322 321 320 319 319 319 319 320 320 320
320 320 320 320 320 320 320 320 320 320 320 321 321 320 320 321 322 323 322 322 322 323 324 324 324 324 324 324 324 325 325 325 326 326 326 327 327 327 327 327 327 327 326 327 327 326 324 324 325 326 327 327 326 325 325 326 326 325 324 323 322 320 320 320 320 320 320 321 321 321 322 321 321 320 320 320 320 320 320 319 318 318 318 317 318 318 318
321 321 321 321 321 321 321 321 321 320 320 321 320 320 319 320 321 322 323 323 323 323 324 324 324 324 324 324 324 324 325 325 326 326 327 327 326 326 326 326 327 326 325 325 325 324 324 324 325 326 326 326 325 323 323 324 324 323 322 321 321 320 321 322 322 322 322 322 321 321 321 320 319 319 319 319 319 319 319 318 317 317 317 316 316 316 316
321 321 321 321 321 321 321 321 321 321 321 320 321 320 320 320 321 322 322 322 323 323 323 323 323 323 324 324 324 324 324 324 324 324 325 326 326 326 326 326 326 325 324 324 324 324 324 324 325 325 326 325 323 322 322 323 324 324 322 322 322 322 322 323 323 323 322 322 321 320 320 319 319 319 319 318 318 318 318 317 317 316 316 316 316 316 316
321 321 321 320 320 321 321 321 321 321 321 320 320 320 320 319 320 321 322 322 322 322 322 323 323 323 323 324 324 323 323 323 323 323 323 324 325 326 326 326 325 324 324 325 324 324 324 324 324 323 322 322 321 321 321 322 322 322 322 322 322 322 322 322 321 321 320 320 320 319 319 318 318 318 318 317 317 316 316 315 315 315 315 315 315 316 316
319 319 319 319 319 319 320 320 320 320 320 319 319 319 319 319 319 319 320 321 321 321 321 321 322 322 322 323 323 323 323 323 323 323 323 323 323 324 324 324 323 322 322 323 323 323 323 323 322 320 319 319 319 319 319 319 319 318 319 319 319 319 319 319 318 318 318 317 318 317 317 316 316 315 315 314 313 313 312 312 312 312 312 312 312 312 313
316 316 317 317 317 318 317 317 317 319 320 319 319 318 318 318 318 318 318 319 320 321 321 321 321 321 321 322 322 322 322 322 322 322 322 322 322 322 321 323 323 322 321 321 322 323 322 321 319 318 318 318 317 316 317 317 316 315 315 315 315 315 315 315 315 315 315 315 315 315 314 314 313 313 313 312 311 310 311 310 310 310 310 310 310 310 311
316 315 315 316 316 315 314 315 317 318 318 318 318 317 317 318 318 317 316 317 318 320 320 320 320 319 318 319 320 321 322 322 322 321 321 321 321 319 319 320 321 320 319 320 321 322 321 319 318 317 317 316 316 316 316 315 314 314 314 313 313 313 313 313 313 313 313 313 313 313 313 312 312 311 311 311 310 310 310 309 309 309 309 309 309 309 309
317 317 317 316 316 314 314 315 317 317 317 317 317 317 316 316 317 317 316 316 318 319 319 318 318 316 314 314 316 319 319 320 321 321 320 320 320 320 319 319 319 318 318 319 319 319 318 317 317 317 316 315 315 316 316 314 313 314 313 313 313 313 312 312 313 312 312 312 312 311 311 311 311 311 311 310 310 310 310 309 309 309 308 308 307 308 308
317 317 316 316 316 315 316 317 317 316 315 317 317 316 316 316 316 316 316 316 317 317 317 316 317 316 315 315 316 317 316 316 317 319 319 319 319 320 320 319 318 317 317 318 318 317 316 315 315 316 315 314 314 316 316 315 314 314 314 314 314 314 313 312 313 313 312 312 312 311 311 311 311 311 311 311 311 311 310 309 309 308 308 307 307 307 307
314 316 316 316 316 317 317 317 316 315 316 317 316 315 316 316 316 315 315 315 315 315 315 315 316 316 316 316 317 317 314 313 314 316 316 317 317 318 319 319 318 317 318 320 320 319 317 316 315 314 313 312 315 317 317 315 314 314 315 314 314 314 313 313 313 313 313 313 313 313 313 312 312 312 312 312 311 311 310 309 309 308 307 306 306 306 306
315 317 317 317 317 316 315 315 315 315 315 316 316 315 316 315 314 314 315 314 314 314 314 313 314 315 314 314 315 316 315 314 315 315 315 316 316 317 317 318 316 314 314 317 319 320 319 318 317 315 314 314 316 318 318 316 315 314 314 314 314 314 314 313 313 312 313 313 313 313 313 313 313 312 312 312 311 311 310 309 308 308 307 306 306 306 306
315 317 317 316 316 315 314 313 313 313 313 314 315 315 315 315 314 314 315 314 314 314 314 313 313 314 314 313 314 314 315 315 315 315 315 316 316 316 316 316 315 312 311 313 317 319 319 319 318 318 316 316 317 318 318 317 316 315 315 314 315 315 314 314 313 313 313 313 313 313 313 313 312 312 312 312 311 311 310 309 308 308 307 307 307 307 306
315 315 316 316 316 316 315 314 313 313 314 315 315 315 315 315 314 314 315 314 314 314 315 315 314 314 314 315 315 315 315 315 315 315 314 315 315 315 315 316 316 315 314 315 317 318 318 318 318 318 317 316 317 318 318 317 317 316 316 315 315 315 314 314 314 314 313 313 313 313 313 313 312 312 312 312 311 311 310 310 309 308 308 307 307 307 307
Wind_Speed
20 21 20 19 18 17 17 19 21 22 24 25 24 23 23 20 16 14 12 15 19 19 20 22 17 14 15 15 15 19 24 26 18 12 14 14 14 15 18 22 26 28 30 31 32 33 33 33 35 35 35 36 37 37 38 36 32 27 26 29 32 34 35 36 38 35 30 31 33 33 36 39 34 29 35 43 47 49 50 49 46 43 43 42 36 31 30
20 23 24 24 23 21 20 22 22 23 24 26 25 24 25 25 23 21 17 18 19 18 19 23 23 23 21 19 20 23 25 26 20 13 14 16 16 18 20 23 27 30 31 31 32 32 32 32 34 35 35 35 36 36 35 35 33 29 27 30 34 35 35 37 34 26 26 32 34 33 35 36 33 32 37 44 48 52 53 51 47 43 43 43 39 35 33
17 21 23 25 25 24 24 24 24 24 25 26 26 24 23 23 24 24 24 22 18 15 16 20 24 28 25 21 21 23 24 25 21 16 16 17 17 18 21 23 26 28 29 30 32 32 31 32 33 34 34 33 33 32 31 31 31 30 28 29 33 34 33 34 29 22 25 32 32 31 32 32 32 32 33 38 44 50 52 50 48 46 44 44 42 39 37
12 15 20 23 24 25 26 25 25 25 24 22 22 21 21 20 21 22 23 21 15 12 14 16 19 23 22 19 20 23 24 23 21 18 17 18 20 21 23 24 25 29 31 32 33 32 30 31 33 33 32 30 29 29 28 27 26 25 26 26 29 30 29 30 26 19 21 27 27 28 28 24 23 24 26 30 37 45 51 50 48 47 46 44 43 42 41
9 12 16 19 20 20 20 19 20 23 23 22 21 21 22 23 21 18 17 16 14 14 16 18 19 21 21 19 21 25 24 19 17 18 18 19 22 24 24 25 28 32 34 35 34 33 30 30 31 31 31 30 29 29 28 26 24 22 23 24 26 26 25 25 21 17 19 25 25 25 23 18 17 19 21 24 29 38 48 51 50 48 46 46 45 42 41
8 11 12 13 14 15 13 13 18 22 23 24 23 22 23 23 20 16 15 15 15 16 18 19 20 22 24 25 24 24 21 15 13 16 17 15 16 17 19 23 27 30 31 32 32 32 30 28 28 29 29 29 29 27 26 25 23 22 21 21 22 21 19 19 17 15 16 20 20 21 20 18 18 19 20 22 25 32 43 50 51 50 47 47 46 42 40
7 8 9 11 12 13 11 11 16 19 21 23 23 23 23 23 21 20 19 17 16 15 16 18 20 22 23 20 18 17 17 16 14 14 15 14 12 13 14 18 23 27 29 29 29 28 27 26 27 28 28 28 27 24 22 22 21 21 21 20 19 18 16 15 15 14 14 14 16 19 19 18 20 20 20 21 23 29 38 44 49 52 50 48 46 42 39
6 6 8 10 9 8 9 9 8 10 14 18 20 21 22 23 22 20 20 19 17 16 16 16 15 14 11 8 10 14 16 17 18 16 15 15 14 14 14 16 20 24 25 26 28 27 24 23 25 27 26 24 21 18 19 20 19 19 19 18 18 17 15 15 14 12 11 11 13 16 18 19 21 21 20 21 23 29 34 37 44 50 50 48 46 41 36
6 7 8 8 8 10 10 6 3 3 6 9 12 14 17 19 19 18 17 17 17 17 15 11 9 7 6 6 10 13 14 17 20 18 14 13 14 15 16 18 21 22 20 22 26 27 25 23 23 22 20 19 19 19 19 20 19 18 18 18 18 17 16 15 13 10 9 10 12 14 16 18 20 21 21 22 25 30 33 35 40 45 44 44 44 39 37
5 7 8 8 10 11 6 1 4 5 7 7 6 8 12 13 14 17 17 17 18 16 13 10 9 7 6 8 9 12 13 14 17 17 16 13 12 13 15 16 18 19 19 21 25 26 25 22 20 19 19 20 22 21 20 20 20 20 19 18 17 16 15 14 11 9 9 9 10 12 14 16 17 18 20 21 24 30 35 38 40 41 40 39 38 37 37
5 8 7 7 9 5 3 7 8 8 8 7 4 7 11 11 13 16 17 17 18 16 13 12 10 8 9 10 9 11 12 11 10 12 14 13 12 13 15 15 16 18 19 21 22 22 21 21 21 22 22 23 24 24 22 20 20 20 19 17 16 15 14 12 10 8 8 8 10 11 12 14 14 15 18 20 21 25 32 37 39 38 37 37 36 35 34
6 7 7 7 7 1 6 10 10 9 7 2 4 10 9 7 12 15 15 16 16 14 12 12 10 9 10 8 5 11 10 9 9 10 12 13 13 14 16 17 19 21 23 23 23 24 25 26 26 25 25 26 26 25 22 19 18 18 18 17 16 15 13 11 8 7 7 8 9 9 10 13 13 13 16 19 19 21 26 33 35 33 31 31 32 31 29
10 9 6 6 6 1 7 11 11 8 4 4 8 8 3 1 4 9 12 14 14 12 14 14 11 7 4 2 8 11 11 11 11 11 12 13 14 15 18 20 22 24 24 25 26 29 30 30 29 28 28 27 26 25 23 21 18 16 16 15 14 12 10 9 8 7 7 7 8 9 10 12 12 12 13 14 16 19 23 27 29 28 26 26 27 27 26
12 10 7 7 5 2 8 11 9 4 5 5 4 3 4 4 3 4 8 12 13 13 15 14 9 8 8 9 11 13 13 15 16 15 16 17 17 18 19 19 21 23 26 28 31 33 33 32 30 28 27 26 25 23 21 18 16 15 15 14 12 10 9 8 7 7 7 7 7 9 9 9 9 10 11 11 12 15 18 19 20 22 22 22 23 23 23
10 10 9 9 6 3 9 9 4 3 4 3 3 4 3 2 2 2 3 7 10 13 14 13 14 15 14 13 15 17 17 18 20 20 21 23 24 23 22 22 23 26 28 29 30 31 30 28 26 24 22 21 20 18 16 15 15 15 14 12 10 8 7 7 6 6 6 6 7 7 6 6 7 7 8 8 9 12 14 16 16 17 18 18 18 19 20
9 11 9 5 1 4 7 6 2 2 3 4 3 1 3 7 7 8 8 8 10 15 19 21 21 21 20 19 19 21 21 22 23 24 25 26 27 27 27 28 28 29 30 30 29 28 27 25 22 20 18 17 15 13 13 15 16 15 13 10 8 6 6 6 7 6 5 5 6 5 4 5 5 5 6 7 9 12 15 16 16 15 16 16 17 18 19
3 4 2 4 6 7 6 3 1 0 1 3 2 3 8 10 10 12 14 14 15 18 23 25 25 24 23 23 22 22 22 23 25 29 31 31 32 33 33 32 30 29 30 30 29 27 25 22 19 16 15 15 14 12 13 14 15 14 12 9 8 8 9 9 9 8 6 6 6 4 3 4 4 6 8 9 10 12 15 16 16 16 17 17 18 19 18
4 3 4 6 9 9 7 3 2 3 3 5 6 8 10 12 13 15 16 15 15 16 19 23 25 24 24 23 22 21 21 23 27 32 34 34 35 36 35 33 30 28 27 26 25 23 21 18 16 15 14 14 15 15 15 14 13 12 11 11 12 12 13 12 10 8 7 7 7 6 5 6 7 8 9 10 10 12 14 15 17 17 17 16 17 18 17
5 3 4 6 10 11 8 4 5 7 9 9 10 10 11 14 16 18 18 17 15 15 17 21 23 24 24 23 21 20 20 22 25 30 31 31 31 31 30 30 28 25 23 22 20 19 19 18 17 15 15 13 13 12 11 10 12 14 14 15 15 14 13 11 10 9 8 9 9 8 7 8 9 8 8 10 11 13 15 17 18 17 16 15 16 18 18
6 6 8 9 12 12 9 7 7 9 10 11 12 11 13 16 18 19 18 17 14 14 15 17 20 22 22 21 20 19 19 20 22 25 26 26 25 24 23 23 23 21 20 19 18 17 18 17 14 13 12 11 10 10 9 11 15 16 15 15 14 13 12 11 10 10 9 9 9 9 9 9 10 9 9 10 11 13 16 18 17 16 16 17 17 18 17
6 8 9 9 10 8 7 9 10 11 11 11 13 14 15 18 20 21 22 20 18 16 16 17 19 21 20 19 19 19 18 18 18 19 20 20 20 20 18 17 17 17 17 18 17 14 12 11 10 10 9 9 10 10 10 11 13 13 14 14 13 12 12 11 11 10 10 9 9 10 11 13 15 15 14 15 15 14 16 18 17 15 14 15 16 15 12
7 7 8 10 9 6 5 8 10 12 12 11 13 16 17 18 19 19 20 20 19 19 20 20 21 21 20 18 19 20 19 18 17 17 17 16 16 16 16 14 13 13 14 15 13 10 9 9 9 9 7 8 9 8 9 11 12 13 14 15 14 13 12 12 12 10 10 10 11 11 11 13 16 16 16 17 17 16 15 16 17 16 14 13 14 12 9
1 1 5 7 8 8 7 7 9 11 14 16 17 17 17 17 18 19 20 20 20 20 21 21 21 21 20 18 19 20 19 18 16 16 15 14 14 13 12 12 11 11 11 11 10 10 10 10 10 9 7 7 8 8 10 12 14 14 15 16 15 13 13 12 12 11 11 11 12 11 10 11 14 14 13 13 15 15 15 16 17 16 14 13 13 13 12
6 2 3 4 7 12 14 10 8 11 13 15 17 18 17 16 16 17 19 20 19 19 20 21 21 21 20 19 19 20 19 17 16 15 14 13 12 11 9 8 8 8 8 8 8 9 9 8 8 7 6 7 8 9 12 15 17 16 15 15 14 14 13 11 11 11 11 11 11 12 11 11 13 14 12 11 13 16 17 17 16 14 13 13 14 15 16
2 6 9 9 12 19 21 15 10 9 8 9 13 16 17 16 15 16 18 19 18 17 17 18 18 18 18 17 17 17 17 16 15 15 14 13 11 10 8 7 6 6 6 6 7 8 7 7 7 7 7 9 11 14 17 19 19 18 17 15 13 13 13 11 10 12 12 11 11 11 11 10 11 12 12 11 13 16 17 16 12 10 11 12 13 14 16
5 11 17 18 18 19 19 16 12 10 9 9 11 12 12 11 11 13 15 16 16 15 14 14 14 15 15 15 15 15 15 14 13 13 13 12 11 9 8 6 5 5 4 5 6 7 7 8 8 9 10 11 14 17 20 20 19 19 19 16 12 12 13 11 10 11 12 12 12 12 11 10 10 11 11 9 10 15 17 15 9 8 9 10 12 13 13
9 14 18 18 16 14 14 14 13 13 13 12 12 13 12 10 9 10 10 11 11 11 11 11 10 9 9 10 11 12 12 10 10 10 10 9 9 8 7 6 5 4 2 3 4 5 7 9 10 10 10 12 15 18 20 20 19 19 18 16 14 14 13 11 9 10 10 11 12 12 11 10 10 11 11 11 11 13 14 11 8 10 11 11 11 12 11
17 16 17 16 15 14 14 15 15 15 15 13 11 11 11 11 10 10 10 10 10 8 8 9 8 6 6 6 7 7 8 7 7 7 6 6 5 3 4 5 5 5 4 2 1 2 5 8 9 9 10 12 14 16 18 19 19 18 18 16 14 13 13 11 9 9 9 10 10 10 9 9 10 11 11 11 10 10 11 10 8 10 12 12 11 11 11
20 21 23 22 19 17 16 16 16 15 13 12 10 8 8 8 9 8 7 7 8 7 7 6 5 5 6 5 5 6 6 5 4 5 5 4 2 1 1 2 3 5 5 4 3 0 3 6 8 9 9 11 12 13 16 18 18 17 17 14 11 10 10 10 8 8 9 10 11 11 10 10 10 10 10 9 9 8 8 9 9 9 11 12 12 12 11
19 21 23 21 19 18 17 16 15 13 12 11 10 9 8 7 6 5 4 3 4 5 5 5 4 3 3 3 4 4 5 4 5 5 4 3 2 1 1 1 1 4 5 4 3 1 1 4 7 8 9 10 11 12 14 17 18 18 16 14 11 9 9 8 7 6 8 11 13 12 11 10 9 8 7 7 8 8 8 8 9 10 11 11 11 10 11
19 20 18 16 15 16 15 13 11 11 11 10 8 8 7 6 5 5 4 3 3 4 4 4 3 2 1 1 2 2 2 3 4 5 5 5 4 3 2 2 1 1 2 2 1 1 1 2 5 7 9 9 10 11 12 15 18 18 16 13 11 8 5 6 6 6 8 12 14 13 11 9 8 7 7 7 8 8 8 8 9 9 9 9 8 9 11
16 16 14 13 12 11 10 8 6 6 7 6 6 5 5 5 5 5 6 6 6 5 5 4 4 3 2 1 1 1 1 2 3 4 5 6 5 4 4 3 3 4 4 4 4 4 1 1 3 6 9 10 10 10 10 12 15 17 14 11 9 5 3 5 8 10 11 12 13 12 10 9 7 7 8 8 7 7 7 7 7 8 8 7 7 9 12
10 9 8 7 6 5 3 2 3 4 5 6 7 6 5 4 4 4 5 6 6 6 6 5 4 4 3 3 3 2 3 3 3 4 5 6 6 5 5 5 4 5 6 7 6 4 1 1 3 7 9 11 11 10 10 11 13 14 14 13 10 7 5 8 12 12 12 12 12 11 11 10 9 8 8 8 7 7 7 7 7 7 7 7 7 9 11
3 3 3 2 2 2 2 2 4 6 6 7 6 5 3 3 3 4 5 6 7 7 7 6 5 4 4 4 3 4 4 4 4 4 6 7 7 6 5 5 5 6 7 7 5 3 2 4 6 7 9 10 11 11 11 11 12 13 14 16 15 10 8 12 14 14 13 13 13 13 12 11 9 8 8 7 6 6 7 7 6 7 7 8 8 9 11
3 4 4 4 5 4 3 4 5 5 5 5 4 3 3 4 5 6 8 8 8 9 9 8 7 6 5 4 3 4 4 4 3 4 5 6 6 5 4 4 4 4 3 2 1 2 4 5 6 7 9 11 12 11 10 9 9 9 11 14 15 13 12 15 17 16 15 15 14 14 13 10 9 7 7 6 5 5 6 6 7 7 8 8 8 8 10
5 5 5 5 5 4 6 7 7 6 5 5 5 5 6 7 8 9 10 9 9 9 8 8 8 8 7 6 6 6 5 5 4 3 3 4 4 4 3 3 3 2 1 2 2 2 1 2 4 6 8 11 12 11 9 7 6 7 8 11 13 15 17 18 17 17 16 15 14 12 10 7 6 7 7 6 5 5 6 6 6 6 6 6 7 7 8
6 6 7 7 7 7 8 9 8 8 7 7 6 6 7 8 9 9 10 10 9 9 9 9 8 8 8 8 8 7 7 6 5 4 4 4 4 3 2 2 2 2 2 4 5 4 3 4 5 4 4 8 11 11 9 7 7 8 9 11 14 18 20 19 16 15 14 12 10 9 7 7 8 9 8 7 6 6 6 5 4 4 5 6 7 7 8
6 7 8 9 9 9 10 9 9 8 8 8 8 7 7 8 9 9 10 10 10 10 11 10 9 9 8 8 7 7 6 6 5 4 4 4 4 3 2 2 3 4 5 6 6 6 7 9 8 6 5 6 8 8 8 7 7 8 10 13 16 18 19 18 15 13 12 9 7 7 7 7 6 5 4 4 5 5 5 5 4 5 5 6 7 7 8
6 7 8 8 8 9 9 9 8 8 8 8 8 7 7 8 8 9 10 10 10 11 12 12 12 11 10 9 8 7 6 6 5 4 4 5 5 5 5 5 5 6 7 7 6 7 9 10 9 7 8 10 12 12 13 14 16 16 15 16 16 16 16 15 12 9 7 6 6 6 4 3 3 4 4 5 5 4 4 5 5 5 5 5 6 7 8
8 8 8 8 8 8 8 8 7 7 7 8 7 7 7 7 8 9 9 9 10 11 11 12 12 12 11 11 10 9 7 6 5 4 4 4 4 4 5 6 6 6 6 6 5 6 7 7 6 6 7 9 11 12 13 13 14 12 11 11 10 9 9 9 8 6 6 5 5 4 4 5 5 5 5 5 4 3 3 3 3 4 4 6 6 6 7
11 10 10 10 10 9 9 8 8 8 8 8 8 8 8 8 8 8 8 8 9 10 10 10 11 11 10 10 10 9 8 8 7 6 5 4 3 3 4 5 4 3 4 4 4 5 6 5 5 5 5 6 7 8 8 8 8 7 7 7 6 6 7 7 6 6 5 5 5 5 6 6 6 5 5 4 4 3 3 3 3 4 5 6 7 7 7
11 10 11 11 11 11 10 10 9 9 9 10 9 9 10 10 10 9 9 8 9 9 10 10 10 9 9 9 9 9 9 9 9 8 8 7 6 6 6 6 5 5 6 6 5 6 7 7 7 7 7 7 7 7 7 7 6 5 5 5 5 6 7 7 7 8 8 7 7 7 6 6 5 5 4 3 3 3 3 4 5 6 7 7 8 8 9
10 11 12 12 12 12 12 12 11 11 11 12 12 12 12 12 12 11 10 10 10 10 10 10 10 9 9 8 8 8 9 9 9 8 9 9 8 8 8 8 7 8 9 8 6 6 6 7 6 7 8 8 8 9 8 7 6 5 5 6 6 6 7 7 7 7 7 7 7 7 6 5 5 4 3 3 3 3 4 5 5 6 7 8 9 10 10
11 12 13 13 13 13 12 11 11 11 11 13 14 14 13 13 13 13 12 11 10 11 11 10 10 10 9 9 8 7 7 7 7 7 6 7 7 6 6 7 7 6 7 7 6 5 5 5 5 6 7 7 7 8 7 5 4 4 5 5 5 6 6 6 6 6 6 6 6 6 5 5 4 4 3 3 3 3 3 4 4 5 6 7 8 9 11
11 11 12 12 13 13 12 12 11 11 10 11 11 12 12 12 13 13 13 12 11 10 11 11 10 10 10 9 8 8 7 7 7 6 6 5 5 4 3 3 3 2 3 4 4 4 3 4 5 6 5 5 5 6 5 4 4 5 5 5 5 5 6 6 6 6 6 6 6 5 5 4 4 4 4 3 3 3 4 4 5 6 6 7 8 8 9
8 9 9 10 11 12 12 12 11 10 9 8 9 10 11 11 11 11 12 12 11 10 10 10 11 11 10 9 8 8 7 6 6 7 6 5 5 4 2 1 1 1 1 3 4 3 3 4 5 5 5 4 4 4 4 4 4 5 5 5 5 5 5 6 5 6 6 6 5 5 5 5 4 4 4 4 4 4 5 6 6 6 6 7 7 8 9
5 6 6 7 8 9 11 11 10 9 9 8 8 9 9 10 9 10 10 10 10 9 9 9 10 11 11 11 10 9 8 7 6 6 6 6 5 4 3 2 1 0 1 1 2 3 3 4 4 5 5 5 4 4 3 3 4 4 4 4 4 4 5 5 6 6 6 6 6 7 7 6 5 5 5 5 5 5 6 6 6 6 6 7 7 7 8
4 4 5 6 6 7 7 7 7 7 8 7 7 8 8 8 9 9 9 9 8 8 7 8 8 9 10 10 10 9 9 9 8 7 7 6 5 4 4 3 2 1 2 2 2 3 4 4 4 5 5 5 4 4 3 3 4 4 4 4 4 5 5 6 6 6 6 6 6 6 6 6 6 6 6 6 6 6 6 7 7 7 6 6 7 7 7
4 5 6 6 7 6 6 6 6 6 6 6 6 8 8 8 7 8 8 9 8 7 7 7 7 7 8 9 8 7 9 11 10 8 8 8 7 6 5 4 4 3 3 4 4 5 6 6 6 6 6 6 6 6 5 5 5 5 5 5 5 6 6 7 7 7 7 7 6 6 6 6 6 7 7 8 8 9 9 8 8 8 8 8 8 8 8
4 4 4 5 5 6 6 6 5 5 5 5 6 7 8 7 7 8 9 9 9 8 8 7 7 7 8 8 8 8 10 12 11 10 10 9 8 7 6 6 6 6 6 5 6 7 8 8 8 8 8 8 8 8 8 8 8 7 7 7 7 6 7 8 9 9 8 8 7 7 7 7 8 9 10 10 10 11 11 10 9 9 10 10 8 7 7
4 4 4 5 5 5 6 6 6 5 6 6 6 7 7 7 7 7 8 8 9 9 8 8 8 8 8 8 9 10 11 11 11 11 11 10 9 9 10 10 10 10 10 8 7 7 8 9 10 10 10 10 10 11 11 10 10 10 9 9 9 8 9 9 9 9 9 9 9 9 9 9 10 11 11 12 12 12 12 11 11 11 10 9 8 7 7
5 4 4 5 5 5 6 6 6 7 7 7 7 7 7 7 7 7 7 8 9 9 9 9 10 9 9 9 11 11 12 12 13 13 13 12 12 12 12 12 11 11 10 9 7 7 8 9 10 11 11 11 11 12 13 13 13 13 12 12 11 11 11 11 11 11 11 11 11 11 11 11 11 12 12 13 13 13 13 13 12 12 11 10 9 9 8
Wind_Direction
236 240 238 234 231 229 229 226 221 221 223 225 228 232 233 234 237 241 231 223 227 230 233 237 232 227 234 236 238 243 251 259 255 223 215 218 205 197 198 201 204 205 207 208 210 213 215 215 218 218 218 219 219 220 222 221 216 209 209 215 220 226 230 232 237 240 237 236 236 238 244 241 231 235 244 243 241 241 241 241 240 239 239 239 238 238 236
238 237 235 236 236 232 230 231 228 226 225 224 227 232 234 234 239 243 240 234 233 229 229 236 239 240 242 244 247 249 252 256 254 231 218 217 207 203 207 210 210 211 211 211 212 214 216 217 217 217 216 216 217 219 221 224 222 214 213 223 229 231 232 235 237 235 235 240 242 248 251 247 245 250 249 242 239 240 242 243 241 239 240 240 238 237 236
241 237 235 235 236 235 232 230 230 232 230 227 227 229 230 233 237 239 239 240 239 230 227 234 238 239 241 245 247 248 249 250 248 237 227 222 211 207 213 215 212 211 210 211 215 216 217 217 215 214 214 213 215 217 218 221 223 220 216 222 232 233 234 240 240 234 242 249 248 250 254 254 258 262 258 251 244 240 241 241 240 239 239 239 237 236 236
239 233 233 233 236 239 237 232 228 229 232 232 230 228 227 229 232 233 236 239 237 226 226 231 233 234 237 241 243 244 245 246 244 237 229 224 220 218 219 215 211 212 212 213 216 216 215 215 214 212 210 209 210 211 212 213 215 216 213 216 230 238 241 247 243 229 244 255 249 249 257 261 263 266 264 258 248 241 239 239 239 238 237 237 237 237 234
247 241 236 233 235 238 238 233 228 229 231 233 235 233 228 227 229 230 232 235 234 230 230 229 228 230 234 237 240 243 245 245 242 239 236 231 229 226 222 217 216 217 216 215 216 215 212 212 213 211 209 209 210 208 207 207 202 204 211 218 233 243 245 248 239 222 244 258 251 251 259 262 262 265 265 259 250 243 241 240 239 238 238 237 236 234 229
251 249 249 245 239 235 232 225 225 228 230 231 234 236 232 227 227 233 237 237 232 227 227 226 226 231 232 230 231 235 238 238 239 244 245 241 234 227 220 219 222 221 215 213 214 213 211 210 211 212 210 210 212 208 207 208 207 208 215 220 229 237 239 241 232 220 239 254 252 253 259 260 258 260 261 259 254 246 243 242 240 239 238 238 236 232 226
249 247 243 239 235 235 238 233 226 226 230 233 237 241 240 234 230 231 235 238 233 227 225 225 227 231 229 222 219 224 229 234 238 244 246 242 235 228 219 216 219 220 215 211 211 211 207 206 207 208 208 211 213 211 209 212 214 214 214 216 221 226 228 228 221 218 230 242 247 252 257 260 260 259 257 259 256 246 243 243 242 241 241 240 238 232 225
245 243 234 236 244 249 252 254 237 222 227 234 236 239 240 238 235 233 232 232 232 231 229 224 223 224 218 210 221 227 229 235 238 240 243 240 232 226 225 220 216 213 210 208 210 209 201 194 199 204 206 208 205 199 199 202 203 203 205 208 212 216 216 212 205 206 219 231 240 249 255 259 260 260 258 257 253 247 245 246 244 243 242 240 238 230 220
236 241 239 244 260 254 242 239 221 212 245 248 243 243 238 232 232 235 233 230 229 232 228 211 191 191 199 220 231 225 224 233 237 235 234 235 230 222 224 229 226 220 214 208 208 208 199 193 196 199 196 191 185 181 186 188 186 187 192 195 198 204 206 203 197 195 207 223 235 244 250 253 256 260 259 256 252 247 247 248 245 240 238 237 235 226 218
239 244 241 239 248 244 231 44 38 18 343 327 302 264 241 221 216 222 225 225 227 229 220 192 169 173 206 233 225 206 205 222 232 230 225 224 221 211 207 215 221 222 219 214 214 213 207 198 192 186 178 175 174 173 175 176 176 179 183 184 188 193 195 193 192 192 202 218 230 238 242 243 247 252 252 256 256 249 246 246 242 235 232 231 228 222 218
245 249 244 242 245 240 48 26 11 358 343 348 337 256 236 207 194 205 216 221 222 223 211 187 171 178 215 236 215 185 187 200 207 211 210 205 199 193 188 188 195 200 201 202 204 202 193 182 177 173 169 168 168 167 168 171 174 175 177 178 180 184 184 185 186 186 193 211 221 225 230 235 238 239 245 256 262 254 248 244 238 232 229 227 223 217 214
227 247 252 252 247 225 38 6 347 339 335 346 213 233 232 194 182 194 206 213 216 216 205 190 184 200 227 238 179 156 165 172 172 177 182 180 175 168 164 168 179 185 183 177 174 171 169 169 169 167 164 164 164 164 164 166 170 172 174 174 175 176 174 174 176 179 188 204 211 213 221 231 236 240 248 258 264 260 250 242 237 233 228 224 221 215 212
214 230 246 260 252 78 28 353 337 326 298 216 212 230 264 7 201 198 202 210 210 204 199 198 201 205 203 122 126 139 144 142 144 152 159 161 157 150 154 166 174 175 169 163 160 161 161 162 163 163 163 161 161 163 164 165 167 168 168 167 167 166 163 162 169 179 186 194 203 213 223 231 238 245 253 260 267 262 247 235 233 231 224 222 221 218 218
215 220 228 249 246 69 18 344 326 288 241 222 230 287 342 337 286 219 206 209 203 195 196 196 184 150 125 119 125 127 128 130 131 134 136 134 132 136 147 157 158 155 155 158 158 156 155 157 160 161 160 158 157 160 161 159 157 156 155 157 159 159 160 164 168 176 183 190 208 226 232 232 237 244 249 258 264 254 234 219 220 222 219 219 220 217 222
213 214 217 234 229 73 19 346 311 240 254 286 330 337 360 38 63 101 169 183 176 168 159 146 131 123 118 121 120 117 119 122 121 120 121 121 122 125 128 132 135 138 143 146 147 147 149 153 155 152 151 150 149 151 151 150 152 153 152 155 159 161 167 174 177 180 187 197 219 239 237 222 225 232 237 243 237 218 202 197 204 210 210 211 210 210 219
212 216 210 215 183 59 23 358 316 280 328 347 334 322 87 92 95 94 91 104 131 137 128 121 119 116 112 111 111 111 113 113 111 109 109 111 114 116 119 123 128 130 128 127 128 132 135 136 135 134 137 139 137 141 150 153 156 158 158 159 166 174 182 191 191 192 196 197 210 230 217 197 207 206 196 197 193 187 188 193 198 201 201 201 200 200 205
219 238 188 105 83 63 38 24 26 308 20 39 49 95 96 91 95 97 95 97 109 118 119 117 115 112 109 107 105 103 103 103 103 103 104 107 111 114 116 120 123 123 120 118 118 119 120 124 127 130 140 149 152 153 156 154 154 158 163 171 186 193 194 196 192 190 195 194 190 197 189 173 175 172 170 173 178 184 191 195 196 197 199 201 200 198 197
93 49 66 98 100 81 56 50 75 64 55 54 60 75 80 76 80 85 86 90 98 106 110 110 108 105 102 99 96 93 92 93 97 102 104 106 109 112 113 115 117 120 119 119 119 117 119 128 135 136 142 152 155 154 154 156 162 172 183 192 198 196 192 190 182 176 181 179 172 171 164 153 156 166 169 172 180 186 189 192 197 199 200 203 203 201 205
154 146 123 112 106 89 60 46 68 58 47 47 53 60 65 69 74 76 75 77 81 85 90 94 97 99 97 94 91 87 84 86 94 101 104 106 108 110 110 110 113 117 118 120 125 129 131 133 135 137 139 141 144 146 152 168 184 191 190 188 187 185 182 176 168 164 167 166 162 160 157 153 159 165 168 174 184 190 190 193 199 201 198 200 205 211 222
164 144 125 102 93 82 48 29 48 48 42 45 52 61 72 77 78 78 77 75 72 72 75 82 87 90 92 93 91 86 80 80 88 97 103 107 109 109 111 114 117 119 122 126 131 138 142 143 146 152 154 158 166 174 185 193 191 185 180 176 176 174 167 158 155 157 159 162 161 157 157 162 164 164 168 177 186 194 197 198 201 202 200 206 216 223 225
137 118 123 111 97 81 37 27 34 31 34 49 57 63 73 79 80 82 82 78 72 67 66 73 78 77 77 83 90 88 82 78 81 89 96 102 107 110 113 118 120 122 130 137 140 145 153 160 168 172 176 188 195 195 193 189 182 175 170 169 168 165 155 149 152 156 155 158 163 161 165 175 177 175 178 183 186 196 201 198 196 196 199 211 221 220 217
141 130 151 145 121 100 50 33 29 23 30 49 56 54 56 62 68 75 78 77 76 73 70 75 80 75 68 72 83 88 89 88 87 90 93 98 107 114 118 123 125 130 141 150 155 163 168 170 174 178 184 194 192 182 176 174 172 171 167 160 156 154 148 146 150 151 151 160 167 165 169 181 182 176 176 181 186 194 196 193 196 204 208 214 217 209 204
49 261 176 140 103 95 90 67 55 54 55 59 59 53 48 50 56 65 72 72 73 74 74 76 81 78 72 71 76 80 83 88 90 93 95 98 104 111 119 127 130 134 144 153 161 164 158 158 166 173 181 188 183 172 169 166 163 162 159 154 150 147 145 150 154 150 153 168 172 167 168 174 174 171 174 183 192 198 200 202 208 213 215 220 221 208 199
316 325 141 107 95 122 136 131 98 81 70 67 69 66 60 56 54 60 69 69 65 67 71 73 77 79 78 78 80 79 79 82 85 87 90 94 99 102 108 119 127 132 141 152 161 167 167 170 175 175 179 187 182 172 164 158 153 152 152 150 148 144 148 160 161 153 158 169 169 168 173 173 171 178 191 202 210 214 212 209 209 212 218 228 226 213 207
261 93 95 94 105 121 132 132 111 86 73 78 88 86 80 76 73 73 76 75 67 61 62 64 69 75 78 80 82 82 79 80 82 83 82 82 87 93 99 108 121 131 143 163 179 185 185 183 180 176 175 174 169 164 159 152 148 146 144 141 142 148 156 164 163 158 165 169 165 169 178 175 176 192 205 213 220 217 205 196 199 213 228 235 229 216 215
148 117 111 108 104 106 113 114 106 96 90 91 100 102 95 89 86 83 81 80 76 70 65 61 59 61 67 72 76 77 75 73 76 80 77 70 66 72 80 88 99 115 140 171 186 186 182 174 167 164 165 165 162 161 157 151 145 143 141 139 147 158 162 165 163 163 168 170 166 168 175 173 177 188 191 191 205 205 194 190 209 241 242 236 231 225 223
100 118 122 115 102 94 95 99 105 112 110 102 101 102 95 85 78 74 68 66 66 64 64 61 51 43 48 52 54 59 61 57 59 69 73 67 59 55 58 68 80 91 119 163 184 187 182 172 162 156 158 161 162 163 161 154 147 145 145 145 152 159 161 160 160 163 168 169 166 168 174 176 176 178 177 178 187 194 195 203 241 265 258 242 233 232 232
75 89 99 99 93 87 88 96 105 110 108 102 98 96 92 85 80 75 71 69 66 61 63 65 60 54 48 33 27 37 40 33 35 47 57 67 71 60 50 59 66 63 59 63 154 203 189 176 167 164 163 163 164 167 166 160 154 151 151 151 154 159 162 158 154 156 162 167 167 169 170 168 166 170 178 183 185 193 206 216 231 251 253 239 224 224 227
69 81 87 90 92 91 92 96 96 93 90 90 87 83 86 93 90 83 82 85 85 89 93 88 77 70 60 46 45 56 56 48 45 47 52 65 91 120 102 62 56 53 47 41 37 9 202 185 175 173 170 166 166 170 171 168 164 159 155 155 158 161 163 162 156 156 164 169 170 168 164 164 168 174 181 190 195 203 218 220 212 222 235 229 218 218 222
71 83 89 92 96 97 92 88 85 82 81 79 74 69 72 84 85 79 81 87 83 86 91 86 78 74 58 46 53 57 54 51 44 36 34 35 29 17 222 239 38 40 31 27 29 13 224 191 184 184 178 170 170 175 176 176 173 166 159 161 165 164 167 174 174 166 169 172 172 169 168 172 181 185 189 208 220 219 219 216 208 210 221 223 218 222 231
82 88 88 87 90 90 83 77 83 91 85 74 67 65 66 65 56 40 29 32 40 44 47 43 38 38 36 45 46 40 38 35 20 12 10 7 360 352 319 284 282 338 346 345 335 312 282 182 191 192 181 174 178 182 183 183 181 175 169 170 173 173 184 198 189 177 179 181 178 176 177 180 190 198 203 213 221 216 208 206 205 204 213 223 225 231 244
80 81 76 69 67 66 60 53 66 87 84 70 66 65 59 53 41 17 2 6 14 16 12 2 342 320 312 325 336 349 5 2 360 3 358 346 341 345 335 307 272 259 257 250 246 253 245 144 180 189 184 183 186 187 191 196 191 184 180 179 181 190 219 207 190 185 186 185 180 179 181 181 183 191 193 191 192 193 191 196 198 197 207 222 225 230 247
63 69 72 63 58 62 58 35 48 69 69 66 68 66 52 39 32 15 6 10 13 12 9 358 337 323 320 319 319 339 357 358 4 9 351 330 321 321 315 302 289 272 249 233 238 255 267 174 198 194 187 188 191 189 191 195 192 188 188 188 190 201 210 197 189 182 176 172 171 174 177 174 169 172 176 175 179 184 189 197 203 205 214 225 223 228 249
49 99 127 126 122 132 130 90 72 69 66 66 70 72 63 49 46 42 36 31 25 20 15 10 7 1 345 331 336 354 1 2 360 351 335 319 309 306 306 304 298 281 254 234 231 235 205 197 201 195 187 190 194 191 189 190 192 199 204 205 211 220 210 188 180 171 163 163 166 167 165 160 157 161 166 169 179 192 198 203 211 220 236 246 241 243 256
131 142 153 155 157 159 140 105 87 78 77 78 75 74 76 71 62 55 49 43 35 25 15 8 10 10 3 5 19 18 11 5 343 323 319 317 315 321 331 334 327 311 283 262 248 209 198 197 192 186 188 192 192 189 190 195 201 210 215 217 222 222 202 182 174 166 159 159 160 158 155 154 160 171 182 188 200 217 225 232 241 250 257 254 244 245 252
131 137 142 142 138 130 120 111 100 91 88 83 71 63 64 63 59 54 49 42 35 30 23 16 14 14 13 21 28 27 25 23 11 354 354 355 352 356 5 6 8 17 22 26 37 55 172 182 164 170 188 198 201 203 211 228 243 242 227 215 208 199 187 179 173 166 160 160 161 159 162 179 203 223 235 239 239 238 240 244 250 255 251 239 232 241 243
119 117 114 107 96 94 97 95 87 82 81 77 71 67 65 62 58 55 50 42 34 33 31 27 25 25 26 28 30 29 30 33 32 28 28 24 14 14 32 58 83 103 91 63 57 63 84 103 110 122 166 200 211 220 232 249 258 246 221 199 189 185 181 174 169 166 164 164 169 179 197 219 231 240 247 249 242 234 231 231 232 230 226 221 223 233 234
99 95 93 87 83 84 87 84 79 77 76 75 75 75 72 67 61 56 52 46 40 39 38 34 32 35 39 43 47 46 43 43 44 44 47 49 44 45 70 97 107 108 96 79 72 74 80 82 84 92 122 161 177 187 188 175 160 155 157 157 160 167 169 166 164 167 169 172 189 210 223 226 226 227 229 224 215 207 202 204 215 228 235 235 229 229 226
85 83 82 79 75 77 78 78 78 76 74 74 75 73 68 63 59 57 56 50 45 45 43 40 39 41 44 48 52 53 52 56 59 58 60 64 63 70 88 99 99 100 97 89 86 92 92 88 89 98 112 125 131 135 143 146 143 142 147 153 157 162 168 169 170 175 185 203 221 229 221 192 170 165 173 182 186 189 197 204 209 218 234 246 244 238 234
85 80 78 77 79 81 82 81 78 74 72 73 73 71 67 63 59 59 58 52 49 49 48 45 44 44 45 46 48 49 52 57 56 48 51 65 70 77 90 95 96 102 105 101 104 115 115 109 108 113 119 127 131 135 142 149 152 155 162 167 173 181 187 191 205 224 230 225 218 201 171 161 163 164 168 172 176 181 196 208 211 220 237 246 246 244 244
80 78 75 76 78 81 85 86 81 76 73 71 69 68 69 68 65 61 58 55 52 52 52 52 52 51 50 52 54 54 56 57 52 44 44 58 69 81 92 91 88 98 113 118 128 140 137 126 118 120 126 138 149 154 151 150 155 170 181 181 182 184 181 181 193 199 187 173 169 167 165 165 165 164 165 171 177 184 199 225 239 242 245 247 246 247 249
77 76 75 76 75 75 78 80 77 73 71 68 66 65 65 65 63 61 59 58 56 54 53 54 54 54 56 61 63 62 61 60 56 52 50 55 64 79 88 90 99 115 117 109 109 121 123 115 112 117 122 130 142 143 132 124 129 146 160 164 168 172 168 161 157 157 157 158 162 165 164 164 164 166 169 180 196 213 229 244 251 252 252 252 250 248 248
79 76 73 72 70 68 69 69 68 67 66 65 64 65 64 63 62 61 58 56 55 55 55 55 51 49 53 58 60 59 58 55 53 54 56 59 69 83 91 97 110 122 119 109 103 109 112 112 121 132 134 136 138 131 120 118 126 132 136 143 151 157 159 156 153 154 158 160 162 164 165 167 170 175 181 193 211 230 241 247 253 256 257 257 256 253 252
76 73 70 68 66 65 64 63 63 65 65 63 63 62 61 60 61 59 57 56 54 51 53 54 51 47 48 49 50 52 52 50 47 50 56 63 69 78 92 102 109 116 117 111 106 107 111 121 139 146 142 144 145 132 118 115 127 131 135 145 149 149 152 154 152 154 158 161 164 168 168 168 173 179 187 198 214 232 242 246 254 262 264 265 265 261 256
73 69 66 64 62 61 60 60 61 64 65 63 61 58 56 56 57 54 53 54 53 50 51 53 53 50 46 42 38 41 46 48 44 40 44 56 60 56 67 95 99 106 126 121 113 114 131 149 157 157 156 158 151 131 114 119 134 135 138 145 147 149 155 159 159 162 166 167 166 168 168 173 183 188 193 205 222 236 244 250 262 272 274 273 272 267 262
69 65 62 58 55 54 55 56 58 60 62 62 58 51 47 47 48 47 48 50 49 49 50 52 52 53 51 45 37 35 35 39 42 41 37 41 47 40 28 41 68 77 131 121 115 132 172 176 168 171 180 177 152 128 118 135 145 142 144 151 154 157 163 166 167 170 172 170 172 177 182 186 192 197 206 219 234 247 254 260 268 274 274 274 276 274 268
66 60 55 51 49 48 49 50 54 56 56 54 50 43 38 36 38 39 40 42 43 46 50 50 49 50 50 47 43 39 29 23 30 38 32 24 25 26 17 8 35 136 202 172 154 175 197 200 191 189 194 187 163 147 151 161 158 156 161 167 168 171 178 179 179 181 183 185 189 194 197 201 207 216 227 238 249 254 256 260 269 276 276 278 281 278 272
75 67 54 48 48 48 47 49 56 57 52 47 42 34 29 30 33 34 33 34 34 35 39 43 42 40 37 36 39 38 29 21 20 23 18 10 7 7 4 2 9 5 308 276 254 230 222 221 217 214 213 205 190 183 189 191 187 188 192 193 192 194 197 195 194 194 195 197 202 209 213 219 225 231 239 250 260 262 259 261 268 272 272 277 283 282 275
78 80 68 58 55 54 51 52 55 51 42 34 29 21 17 20 28 30 27 25 23 21 22 27 30 27 22 22 23 18 12 10 8 4 358 356 356 354 349 343 340 332 308 275 261 256 245 233 227 229 230 222 210 207 210 212 209 207 207 208 209 208 206 203 203 203 203 207 214 221 223 227 239 251 259 268 274 274 270 267 264 263 266 274 282 283 277
73 82 74 59 51 47 45 44 44 39 28 18 12 10 9 12 21 25 23 20 19 17 16 18 21 19 15 14 13 5 360 358 356 349 343 341 338 336 331 326 323 323 315 292 272 265 255 240 230 232 236 232 223 218 219 220 219 216 215 215 214 213 213 214 215 215 215 220 226 232 237 245 256 263 267 273 278 277 273 269 265 264 270 276 277 274 272
68 68 59 47 40 38 35 29 19 9 3 358 354 354 357 359 5 14 16 12 11 10 9 7 6 5 1 359 358 356 352 349 346 344 340 335 328 322 317 311 308 312 314 305 282 268 261 251 241 240 243 241 234 229 228 227 225 223 224 224 223 225 229 232 232 229 230 232 235 239 245 254 262 267 269 274 277 276 272 270 268 268 270 272 267 261 264
58 53 48 39 33 30 26 16 4 359 358 355 348 348 349 346 345 356 3 360 355 356 355 350 345 344 344 344 344 344 343 342 340 337 334 332 329 325 319 310 301 299 301 296 283 271 266 260 253 253 256 254 246 240 239 239 237 236 235 233 232 234 237 239 238 238 239 242 246 249 252 255 259 263 267 271 274 272 269 267 265 264 265 265 263 262 264